Vertical_Velocity
1 1 4 1 1 2 3 4 6 -2 -0 -1 -3 -5 3 -2 1 -3 -6 -2 1 1 1 -0 1 -1 -3 -5 -6 -4 -4 -3 2 -9 3 -5 1 -6
0 -1 2 4 4 0 4 1 4 2 1 3 3 0 -3 -1 -3 3 -3 -2 -1 -5 -2 3 1 -2 -2 2 3 -4 8 -1 -8 1 4 -7 -4 -1
2 -2 2 4 3 3 4 1 5 -2 0 -1 -3 -3 7 -2 2 2 -2 -3 -2 -4 -2 -3 -1 -5 -1 -2 6 -2 -13 5 2 -3 2 -1 -4 -6
2 -0 1 2 1 5 3 6 8 4 -5 4 -2 -1 -3 -2 -2 -2 -2 -4 -0 -2 3 2 7 1 1 0 -0 -0 -7 1 -6 1 -0 4 -6 -2
3 5 5 4 2 3 4 2 4 -1 3 -1 6 2 -3 3 -1 1 -3 -4 -5 -8 -5 -1 4 -0 -4 1 1 3 3 1 4 3 -4 5 4 -4
3 6 3 0 3 2 2 -4 -4 2 -2 0 3 -5 3 5 1 -4 -6 -2 -3 2 3 -0 1 2 6 3 0 -2 -0 -4 1 -4 -3 2 -7 -3
3 2 2 -1 2 6 -8 -9 -2 -1 -15 15 3 -15 5 2 3 2 -4 4 -7 -4 -6 -3 7 -4 -4 7 8 -2 1 -1 5 -1 0 -0 -3 2
-11 7 3 9 2 -9 -6 11 5 8 -2 9 -0 9 0 0 2 -5 1 9 -5 1 -4 -6 3 7 -1 2 2 2 0 1 -8 -3 2 -0 1 -7
5 14 20 15 -2 21 13 4 1 9 3 0 2 1 4 4 6 1 -3 -1 1 -2 -1 -1 -2 1 7 4 0 -2 -1 5 1 1 7 2 -5 7
-1 -6 -9 5 -0 17 1 7 12 4 -1 -1 4 -1 4 1 -1 -0 0 -8 -8 1 -3 0 -5 0 -1 -9 -7 -7 -5 -1 3 -3 -7 13 1 -0
7 4 9 15 -9 4 18 10 -1 -0 5 -3 -3 1 2 -5 -0 -4 -3 -6 4 2 0 1 -1 -2 -0 -3 -0 -4 -8 -5 -3 -12 2 -2 -0 3
55 33 6 2 0 -7 -9 2 -9 -3 -1 -2 -0 -2 -1 -3 -4 -3 -12 3 7 -1 -5 -3 -5 -7 -6 -8 -7 -8 1 -13 0 13 -4 -3 -1 -1
-8 7 -7 -8 -6 -7 -3 1 2 -8 -4 0 6 0 -4 0 -2 -3 0 3 0 -4 -5 -2 -1 -3 -7 -4 -3 -3 -6 -11 4 -9 -3 6 -1 -2
-1 5 -7 4 8 2 7 4 3 2 2 0 -5 -4 -1 -0 1 -1 1 3 2 -2 -3 -2 -1 0 3 -2 0 4 4 -1 1 3 1 2 0 -4
4 3 7 12 3 2 7 4 3 9 1 -7 -2 -1 -3 -2 -1 0 5 2 8 -1 -2 -6 -4 0 -5 -4 -5 1 2 -5 7 8 -5 -5 0 -0
-5 3 4 -3 -6 2 -4 9 14 5 4 -2 1 8 1 -0 -6 -2 2 3 -1 -3 -5 -5 1 12 7 4 -6 -7 2 1 0 2 3 -5 -2 -1
4 -3 8 14 9 -1 -3 4 1 4 6 -0 2 -1 0 4 -2 -4 2 2 -1 -1 -1 -2 5 2 7 1 -1 3 -5 -1 5 0 1 -1 -5 -3
7 -12 -14 4 -2 -7 -0 3 2 2 3 2 2 3 -4 0 -3 -2 -1 0 1 -0 -2 3 -0 2 -1 0 -3 2 0 -2 3 1 1 1 -4 -1
1 9 -7 -2 11 -2 -7 -1 4 2 3 0 4 3 2 1 -1 -3 -3 -4 -4 -5 1 -3 -2 3 -2 -2 2 0 -0 0 -0 2 -2 5 -3 -2
2 1 5 -1 8 4 1 5 10 8 3 5 5 -3 3 1 -4 -3 -4 -1 -1 2 -5 1 1 1 -2 5 0 -1 -1 -0 -1 1 2 1 -3 -1
7 1 9 9 11 6 10 5 3 10 7 4 -1 -1 -0 -0 -2 -1 -1 2 -0 1 -1 -4 0 2 0 6 3 -1 -2 -2 0 2 1 -2 1 0
5 7 6 16 18 16 10 7 7 7 1 1 -3 3 -2 3 -1 -6 2 -2 -1 -0 0 0 -1 1 0 6 2 -1 -1 1 3 -0 -3 -1 3 1
4 4 5 19 8 3 6 7 9 10 6 4 -1 -1 2 -5 3 -6 -2 2 1 -2 2 3 1 -2 1 4 -0 1 1 0 -2 -1 1 0 1 0
Height
3135 3139 3142 3145 3148 3149 3151 3151 3150 3150 3150 3148 3146 3146 3145 3143 3140 3139 3139 3137 3134 3132 3131 3129 3127 3125 3124 3123 3120 3118 3115 3113 3111 3110 3109 3108 3108 3108
3128 3132 3136 3139 3141 3143 3144 3144 3145 3143 3143 3141 3140 3139 3139 3137 3136 3134 3133 3130 3129 3127 3125 3123 3120 3119 3119 3116 3114 3110 3108 3107 3105 3103 3103 3102 3102 3100
3122 3126 3129 3132 3134 3136 3137 3138 3138 3138 3137 3135 3133 3133 3132 3130 3128 3127 3126 3124 3122 3121 3119 3117 3115 3113 3111 3108 3107 3104 3102 3100 3098 3097 3096 3096 3096 3096
3117 3119 3122 3124 3126 3128 3129 3131 3131 3131 3130 3128 3127 3125 3125 3123 3121 3120 3119 3119 3116 3113 3111 3109 3108 3105 3103 3101 3098 3097 3095 3092 3089 3088 3089 3088 3088 3089
3109 3111 3115 3116 3118 3119 3120 3122 3124 3123 3122 3121 3119 3117 3117 3117 3115 3112 3112 3110 3108 3106 3105 3102 3099 3098 3096 3094 3092 3091 3088 3085 3083 3084 3083 3085 3084 3085
3101 3103 3105 3107 3109 3111 3112 3114 3115 3115 3112 3111 3108 3107 3109 3109 3105 3103 3102 3100 3099 3097 3095 3092 3091 3090 3088 3086 3084 3084 3082 3080 3077 3079 3078 3078 3077 3076
3094 3095 3097 3098 3101 3102 3103 3105 3105 3105 3104 3101 3100 3101 3104 3100 3097 3095 3094 3092 3091 3090 3088 3086 3083 3082 3081 3079 3077 3076 3075 3073 3072 3072 3072 3072 3072 3073
3084 3087 3087 3089 3090 3092 3092 3092 3093 3093 3095 3095 3094 3095 3094 3092 3091 3089 3088 3085 3083 3082 3079 3077 3077 3075 3074 3073 3071 3068 3067 3064 3065 3065 3069 3069 3067 3068
3072 3074 3075 3077 3079 3078 3079 3079 3081 3083 3085 3085 3087 3087 3086 3083 3082 3080 3080 3080 3077 3075 3074 3071 3070 3069 3067 3065 3065 3064 3063 3062 3061 3061 3061 3060 3062 3063
3063 3065 3067 3067 3069 3071 3072 3071 3073 3075 3077 3078 3078 3079 3078 3077 3075 3074 3072 3071 3071 3068 3066 3065 3064 3063 3061 3061 3059 3057 3057 3056 3055 3057 3059 3058 3056 3058
3054 3056 3058 3060 3062 3063 3063 3063 3066 3067 3068 3070 3072 3071 3071 3070 3068 3066 3063 3061 3060 3059 3057 3057 3057 3056 3055 3054 3054 3051 3051 3050 3048 3049 3051 3051 3052 3050
3047 3047 3050 3052 3054 3055 3055 3057 3059 3062 3062 3062 3063 3063 3062 3060 3058 3056 3055 3054 3051 3051 3050 3051 3049 3049 3048 3046 3046 3046 3043 3042 3043 3042 3040 3042 3043 3045
3041 3043 3045 3046 3046 3046 3048 3049 3050 3052 3052 3054 3054 3053 3052 3050 3048 3046 3046 3045 3044 3044 3045 3045 3043 3041 3039 3039 3038 3036 3037 3036 3033 3035 3036 3035 3035 3037
3029 3032 3032 3033 3035 3037 3039 3040 3040 3041 3043 3043 3043 3043 3041 3040 3041 3039 3039 3038 3037 3037 3038 3037 3037 3035 3032 3031 3032 3030 3029 3030 3028 3029 3028 3030 3029 3028
3019 3020 3022 3022 3022 3024 3027 3027 3028 3030 3030 3032 3031 3032 3033 3034 3034 3033 3031 3030 3030 3030 3029 3029 3028 3026 3026 3026 3026 3026 3023 3025 3024 3022 3023 3024 3024 3024
3006 3010 3010 3009 3013 3014 3014 3017 3019 3018 3019 3021 3022 3023 3023 3024 3024 3025 3023 3022 3021 3021 3021 3022 3022 3021 3019 3019 3018 3020 3018 3018 3017 3017 3017 3017 3019 3019
2990 2993 2997 2996 2998 3003 3005 3006 3010 3009 3011 3012 3014 3015 3016 3014 3013 3015 3016 3013 3013 3011 3012 3014 3014 3013 3012 3013 3012 3011 3010 3011 3012 3011 3012 3011 3012 3013
2974 2977 2986 2989 2988 2991 2995 2997 2999 3000 3001 3001 3004 3004 3006 3006 3004 3007 3006 3006 3005 3004 3004 3004 3007 3006 3006 3007 3006 3004 3004 3005 3005 3004 3005 3005 3005 3007
2959 2961 2968 2975 2976 2977 2983 2986 2988 2989 2991 2992 2993 2994 2996 2996 2996 2998 2999 2998 2996 2995 2995 2997 2997 2999 2999 2999 2998 2997 2998 2998 2998 2998 2999 2999 2999 3002
2945 2949 2955 2960 2963 2965 2969 2972 2975 2976 2979 2981 2983 2984 2988 2987 2988 2988 2988 2988 2987 2987 2987 2988 2990 2991 2992 2992 2989 2990 2991 2991 2991 2991 2992 2993 2994 2995
2931 2937 2943 2945 2948 2951 2954 2958 2962 2965 2968 2971 2973 2975 2977 2977 2977 2978 2979 2978 2980 2979 2980 2980 2982 2983 2984 2985 2983 2982 2985 2985 2984 2984 2986 2987 2988 2989
2917 2922 2927 2931 2934 2937 2940 2945 2949 2952 2956 2960 2963 2966 2967 2967 2966 2968 2970 2969 2971 2971 2972 2972 2973 2975 2977 2977 2976 2977 2975 2976 2978 2979 2979 2980 2981 2982
2907 2910 2914 2918 2921 2925 2928 2933 2938 2942 2946 2950 2954 2956 2955 2957 2956 2958 2960 2960 2962 2963 2965 2965 2965 2967 2969 2969 2970 2970 2970 2969 2970 2971 2971 2972 2973 2974